When you browse on this site, cookies collect data to enhance your experience and personalize the content and advertising you see.
Visit our Privacy Policy to learn more. By continuing to use the site, you agree to this use of cookies and data.
  • In Österreich
  • Länderverzeichnis
  • Für 7 Tage
  • Wassertemperatur
  • Satellitenkarten
  • Wetterkarte
  • News
  • Widgets
  • user-avatar
    Anmelden

    Stündliche Wetter Chymbarivka

    Heute, 18 Januar, Freitag

    Zeit Temperatur Niederschläge Wind Luftdruck Luftfeuchtigkeit
    00:00 -2°C° 0 mm 2 m/S 729 mmHg 84%
    01:00 -2°C° 0 mm 2 m/S 729 mmHg 84%
    02:00 -2°C° 0 mm 2 m/S 729 mmHg 83%
    03:00 -2°C° 0 mm 2 m/S 729 mmHg 84%
    04:00 -2°C° 0 mm 3 m/S 729 mmHg 85%
    05:00 -2°C° 0 mm 3 m/S 729 mmHg 86%
    06:00 -2°C° 0 mm 3 m/S 729 mmHg 86%
    07:00 -1°C° 0 mm 3 m/S 729 mmHg 86%
    08:00 -1°C° 0 mm 3 m/S 729 mmHg 87%
    09:00 0°C° 0 mm 3 m/S 729 mmHg 89%
    10:00 0°C° 0 mm 3 m/S 729 mmHg 91%
    11:00 +1°C° 0 mm 2 m/S 729 mmHg 93%
    12:00 +2°C° 0 mm 2 m/S 729 mmHg 95%
    13:00 +2°C° 0 mm 2 m/S 729 mmHg 97%
    14:00 +2°C° 0 mm 2 m/S 729 mmHg 100%
    15:00 +1°C° 0 mm 2 m/S 730 mmHg 98%
    16:00 +1°C° 0 mm 2 m/S 730 mmHg 96%
    17:00 0°C° 0 mm 3 m/S 730 mmHg 95%
    18:00 0°C° 0.1 mm 3 m/S 731 mmHg 94%
    19:00 -1°C° 0.1 mm 3 m/S 731 mmHg 93%
    20:00 -1°C° 0.1 mm 3 m/S 732 mmHg 93%
    21:00 -1°C° 0.1 mm 3 m/S 732 mmHg 92%
    22:00 -2°C° 0.1 mm 4 m/S 733 mmHg 92%
    23:00 -3°C° 0.1 mm 4 m/S 734 mmHg 92%

    Morgen, 19 Januar, Samstag

    Zeit Temperatur Niederschläge Wind Luftdruck Luftfeuchtigkeit
    00:00 -3°C° 0.1 mm 4 m/S 734 mmHg 92%
    01:00 -3°C° 0.1 mm 4 m/S 735 mmHg 93%
    02:00 -4°C° 0.1 mm 4 m/S 735 mmHg 93%
    03:00 -5°C° 0 mm 3 m/S 736 mmHg 93%
    04:00 -6°C° 0 mm 3 m/S 736 mmHg 93%
    05:00 -8°C° 0 mm 3 m/S 736 mmHg 93%
    06:00 -8°C° 0 mm 3 m/S 737 mmHg 93%
    07:00 -8°C° 0 mm 2 m/S 737 mmHg 93%
    08:00 -9°C° 0 mm 2 m/S 738 mmHg 93%
    09:00 -8°C° 0 mm 2 m/S 738 mmHg 92%
    10:00 -7°C° 0 mm 2 m/S 739 mmHg 91%
    11:00 -6°C° 0 mm 2 m/S 739 mmHg 90%
    12:00 -6°C° 0 mm 2 m/S 739 mmHg 90%
    13:00 -3°C° 0 mm 1 m/S 739 mmHg 89%
    14:00 -3°C° 0 mm 1 m/S 739 mmHg 89%
    15:00 -4°C° 0 mm 1 m/S 739 mmHg 89%
    16:00 -6°C° 0 mm 0 m/S 739 mmHg 90%
    17:00 -7°C° 0 mm 0 m/S 739 mmHg 90%
    18:00 -7°C° 0 mm 0 m/S 739 mmHg 90%
    19:00 -8°C° 0 mm 1 m/S 739 mmHg 89%
    20:00 -8°C° 0 mm 1 m/S 739 mmHg 89%
    21:00 -8°C° 0 mm 1 m/S 739 mmHg 88%
    22:00 -8°C° 0 mm 1 m/S 739 mmHg 88%
    23:00 -9°C° 0 mm 1 m/S 739 mmHg 87%

    übermorgen, 20 Januar, Sonntag

    Zeit Temperatur Niederschläge Wind Luftdruck Luftfeuchtigkeit
    00:00 -10°C° 0 mm 2 m/S 739 mmHg 88%
    01:00 -10°C° 0 mm 2 m/S 739 mmHg 89%
    02:00 -10°C° 0 mm 2 m/S 739 mmHg 89%
    03:00 -10°C° 0 mm 2 m/S 738 mmHg 90%
    04:00 -12°C° 0 mm 3 m/S 738 mmHg 90%
    05:00 -12°C° 0 mm 3 m/S 737 mmHg 90%
    06:00 -12°C° 0 mm 3 m/S 737 mmHg 90%
    07:00 -10°C° 0 mm 3 m/S 737 mmHg 90%
    08:00 -11°C° 0 mm 4 m/S 737 mmHg 89%
    09:00 -11°C° 0 mm 4 m/S 737 mmHg 89%
    10:00 -10°C° 0 mm 4 m/S 737 mmHg 88%
    11:00 -10°C° 0 mm 5 m/S 736 mmHg 88%
    12:00 -8°C° 0 mm 5 m/S 736 mmHg 89%
    13:00 -8°C° 0 mm 4 m/S 735 mmHg 91%
    14:00 -7°C° 0 mm 4 m/S 735 mmHg 92%
    15:00 -6°C° 0 mm 3 m/S 734 mmHg 93%
    16:00 -6°C° 0 mm 3 m/S 734 mmHg 95%
    17:00 -5°C° 0 mm 2 m/S 734 mmHg 96%
    18:00 -5°C° 0.1 mm 2 m/S 734 mmHg 96%
    19:00 -2°C° 0.1 mm 1 m/S 733 mmHg 97%
    20:00 -2°C° 0.1 mm 1 m/S 733 mmHg 97%
    21:00 -2°C° 0.4 mm 1 m/S 733 mmHg 97%
    22:00 -2°C° 0.4 mm 1 m/S 734 mmHg 97%
    23:00 -4°C° 0.4 mm 2 m/S 734 mmHg 97%

    21 Januar, Montag

    Zeit Temperatur Niederschläge Wind Luftdruck Luftfeuchtigkeit
    00:00 -4°C° 0.3 mm 2 m/S 734 mmHg 97%
    01:00 -6°C° 0.3 mm 3 m/S 734 mmHg 96%
    02:00 -6°C° 0.3 mm 3 m/S 734 mmHg 95%
    03:00 -7°C° 0 mm 3 m/S 734 mmHg 95%
    04:00 -8°C° 0 mm 3 m/S 734 mmHg 94%
    05:00 -8°C° 0 mm 3 m/S 734 mmHg 94%
    06:00 -9°C° 0 mm 3 m/S 735 mmHg 94%
    07:00 -10°C° 0 mm 3 m/S 735 mmHg 93%
    08:00 -10°C° 0 mm 3 m/S 736 mmHg 93%
    09:00 -11°C° 0 mm 4 m/S 737 mmHg 92%
    10:00 -10°C° 0 mm 4 m/S 737 mmHg 92%
    11:00 -9°C° 0 mm 4 m/S 738 mmHg 92%
    12:00 -9°C° 0 mm 4 m/S 738 mmHg 91%
    13:00 -8°C° 0 mm 4 m/S 738 mmHg 90%
    14:00 -7°C° 0 mm 5 m/S 738 mmHg 89%
    15:00 -8°C° 0 mm 4 m/S 739 mmHg 89%
    16:00 -8°C° 0 mm 3 m/S 739 mmHg 89%
    17:00 -8°C° 0 mm 2 m/S 739 mmHg 88%
    18:00 -9°C° 0 mm 2 m/S 740 mmHg 89%
    19:00 -10°C° 0 mm 2 m/S 740 mmHg 89%
    20:00 -12°C° 0 mm 2 m/S 740 mmHg 90%
    21:00 -11°C° 0 mm 1 m/S 740 mmHg 89%
    22:00 -11°C° 0 mm 1 m/S 741 mmHg 89%
    23:00 -12°C° 0 mm 0 m/S 741 mmHg 88%

    22 Januar, Dienstag

    Zeit Temperatur Niederschläge Wind Luftdruck Luftfeuchtigkeit
    00:00 -12°C° 0 mm 0 m/S 741 mmHg 87%
    01:00 -12°C° 0 mm 1 m/S 740 mmHg 86%
    02:00 -12°C° 0 mm 1 m/S 740 mmHg 84%
    03:00 -12°C° 0 mm 1 m/S 740 mmHg 84%
    04:00 -13°C° 0 mm 1 m/S 739 mmHg 84%
    05:00 -15°C° 0 mm 2 m/S 739 mmHg 83%
    06:00 -15°C° 0 mm 2 m/S 739 mmHg 84%
    07:00 -15°C° 0 mm 2 m/S 739 mmHg 85%
    08:00 -15°C° 0 mm 2 m/S 739 mmHg 86%
    09:00 -14°C° 0 mm 2 m/S 739 mmHg 86%
    10:00 -13°C° 0 mm 3 m/S 738 mmHg 86%
    11:00 -12°C° 0 mm 3 m/S 738 mmHg 86%
    12:00 -12°C° 0 mm 3 m/S 737 mmHg 86%
    13:00 -10°C° 0 mm 3 m/S 737 mmHg 87%
    14:00 -10°C° 0 mm 3 m/S 736 mmHg 87%
    15:00 -10°C° 0 mm 3 m/S 736 mmHg 89%
    16:00 -12°C° 0 mm 3 m/S 735 mmHg 91%
    17:00 -13°C° 0 mm 3 m/S 735 mmHg 93%
    18:00 -14°C° 0 mm 3 m/S 734 mmHg 94%
    19:00 -14°C° 0 mm 3 m/S 734 mmHg 95%
    20:00 -14°C° 0 mm 3 m/S 734 mmHg 97%
    21:00 -14°C° 0 mm 3 m/S 733 mmHg 97%
    22:00 -13°C° 0 mm 3 m/S 733 mmHg 97%
    23:00 -14°C° 0 mm 4 m/S 733 mmHg 97%

    23 Januar, Mittwoch

    Zeit Temperatur Niederschläge Wind Luftdruck Luftfeuchtigkeit
    00:00 -12°C° 0 mm 4 m/S 732 mmHg 96%
    01:00 -12°C° 0 mm 4 m/S 731 mmHg 96%
    02:00 -12°C° 0 mm 4 m/S 731 mmHg 95%
    03:00 -11°C° 0 mm 5 m/S 730 mmHg 94%
    04:00 -10°C° 0 mm 6 m/S 730 mmHg 93%
    05:00 -8°C° 0 mm 6 m/S 729 mmHg 92%
    06:00 -8°C° 0 mm 7 m/S 729 mmHg 92%
    07:00 -7°C° 0 mm 7 m/S 728 mmHg 92%
    08:00 -7°C° 0 mm 8 m/S 728 mmHg 91%
    09:00 -7°C° 0.1 mm 8 m/S 728 mmHg 91%
    10:00 -7°C° 0.1 mm 8 m/S 727 mmHg 91%
    11:00 -6°C° 0.1 mm 9 m/S 727 mmHg 91%
    12:00 -6°C° 0.1 mm 9 m/S 726 mmHg 91%
    13:00 -5°C° 0.1 mm 9 m/S 725 mmHg 91%
    14:00 -4°C° 0.1 mm 9 m/S 725 mmHg 91%
    15:00 -4°C° 0.2 mm 9 m/S 724 mmHg 91%
    16:00 -4°C° 0.2 mm 10 m/S 724 mmHg 91%
    17:00 -4°C° 0.2 mm 10 m/S 724 mmHg 91%
    18:00 -4°C° 0.1 mm 10 m/S 724 mmHg 90%
    19:00 -5°C° 0.1 mm 10 m/S 724 mmHg 90%
    20:00 -6°C° 0.1 mm 9 m/S 723 mmHg 89%
    21:00 -6°C° 0 mm 9 m/S 723 mmHg 89%
    22:00 -8°C° 0 mm 9 m/S 723 mmHg 90%
    23:00 -8°C° 0 mm 9 m/S 722 mmHg 91%
    Mehr zeigen